IW3HBX-13 Weather Reports


time (UTC)temp
F
wind
direction
speed
knots
gust
knots
rain 1hr
in
rain 24hr
in
rain mn
in
humidity
%
barometer
mb
20260906091128 83 68 2.6 4.3 0.00 0.00 0.00 46 1023.2
20260906090128 82 62 4.3 5.2 0.00 0.00 0.00 46 1023.3
20260906085128 82 57 4.3 5.2 0.00 0.00 0.00 49 1023.2
20260906084129 81 60 5.2 7.8 0.00 0.00 0.00 49 1023.4
20260906083129 82 71 2.6 5.2 0.00 0.00 0.00 50 1023.3
20260906082127 81 60 5.2 8.7 0.00 0.00 0.00 50 1023.3
20260906081129 81 65 1.7 4.3 0.00 0.00 0.00 51 1023.2
20260906080127 81 68 2.6 4.3 0.00 0.00 0.00 52 1023.1
20260906075130 80 61 5.2 8.7 0.00 0.00 0.00 54 1023.0
20260906074131 80 66 3.5 5.2 0.00 0.00 0.00 54 1023.0
20260906073131 79 55 6.1 9.6 0.00 0.00 0.00 57 1023.2
20260906072128 79 60 2.6 4.3 0.00 0.00 0.00 57 1023.0
20260906071127 78 63 6.1 10.4 0.00 0.00 0.00 59 1022.9
20260906070131 78 61 4.3 8.7 0.00 0.00 0.00 60 1022.8
20260906065131 78 62 1.7 2.6 0.00 0.00 0.00 60 1022.7
20260906064132 77 56 2.6 4.3 0.00 0.00 0.00 64 1022.7
20260906063131 78 48 2.6 5.2 0.00 0.00 0.00 66 1022.6
20260906062131 78 319 2.6 2.6 0.00 0.00 0.00 65 1022.5
20260906061128 77 72 1.7 1.7 0.00 0.00 0.00 66 1022.3
20260906060130 77 65 2.6 3.5 0.00 0.00 0.00 67 1022.2
20260906055130 76 70 0.0 0.9 0.00 0.00 0.00 69 1022.2
20260906054128 76 73 1.7 2.6 0.00 0.00 0.00 69 1021.9
20260906053131 75 60 1.7 3.5 0.00 0.00 0.00 72 1021.8
20260906052130 74 62 1.7 1.7 0.00 0.00 0.00 75 1021.8
20260906051129 73 56 1.7 2.6 0.00 0.00 0.00 76 1021.5
20260906050128 73 74 0.0 0.9 0.00 0.00 0.00 77 1021.4
20260906045129 73 61 0.9 1.7 0.00 0.00 0.00 78 1021.4
20260906044130 73 68 1.7 3.5 0.00 0.00 0.00 78 1021.3
20260906043128 73 64 0.9 1.7 0.00 0.00 0.00 78 1021.3
20260906042129 73 295 1.7 2.6 0.00 0.00 0.00 77 1021.2
20260906041131 73 24 1.7 1.7 0.00 0.00 0.00 78 1021.1
20260906040127 73 286 0.0 0.0 0.00 0.00 0.00 78 1021.1
20260906035129 73 275 0.0 1.7 0.00 0.00 0.00 77 1021.0
20260906034131 73 85 0.9 1.7 0.00 0.00 0.00 76 1020.9
20260906033128 74 52 1.7 2.6 0.00 0.00 0.00 76 1020.9
20260906032131 74 51 0.9 1.7 0.00 0.00 0.00 76 1020.8
20260906031128 74 61 0.9 1.7 0.00 0.00 0.00 76 1020.8
20260906030129 74 50 0.9 0.9 0.00 0.00 0.00 76 1020.9
20260906025130 74 52 0.0 0.0 0.00 0.00 0.00 76 1020.9
20260906024128 74 68 0.9 1.7 0.00 0.00 0.00 75 1020.9
20260906023128 75 67 0.9 1.7 0.00 0.00 0.00 73 1020.8
20260906022130 75 66 0.0 0.9 0.00 0.00 0.00 73 1020.6
20260906021129 75 61 0.9 2.6 0.00 0.00 0.00 73 1020.7
20260906020128 75 56 1.7 1.7 0.00 0.00 0.00 73 1020.7
20260906015128 75 58 0.9 1.7 0.00 0.00 0.00 73 1020.6
20260906014131 75 3 0.9 1.7 0.00 0.00 0.00 75 1020.5
20260906013128 76 37 0.9 2.6 0.00 0.00 0.00 75 1020.4
20260906012129 76 351 0.9 1.7 0.00 0.00 0.00 77 1020.4
20260906011128 76 51 0.9 1.7 0.00 0.00 0.00 76 1020.3
20260906010130 76 67 1.7 3.5 0.00 0.00 0.00 77 1020.3
20260906005129 76 67 0.9 1.7 0.00 0.00 0.00 78 1020.5
20260906004129 76 63 1.7 3.5 0.00 0.00 0.00 80 1020.4
20260906003128 76 62 2.6 4.3 0.00 0.00 0.00 81 1020.4
20260906002130 76 64 1.7 3.5 0.00 0.00 0.00 83 1020.4
20260906001130 76 79 1.7 3.5 0.00 0.00 0.00 86 1020.4
20260906000128 76 75 0.9 1.7 0.00 0.00 0.00 86 1020.5
20260905235131 76 73 1.7 1.7 0.00 0.00 0.00 86 1020.4
20260905234129 76 65 1.7 3.5 0.00 0.00 0.00 86 1020.3
20260905233128 76 46 0.9 1.7 0.00 0.00 0.00 86 1020.3
20260905232128 77 49 0.0 0.0 0.00 0.00 0.00 86 1020.1
20260905231127 77 309 0.0 1.7 0.00 0.00 0.00 86 1020.2
20260905230131 77 350 1.7 2.6 0.00 0.00 0.00 85 1020.3
20260905225131 77 57 0.9 2.6 0.00 0.00 0.00 86 1020.2
20260905224130 77 18 1.7 2.6 0.00 0.00 0.00 86 1020.1
20260905223130 77 48 0.9 1.7 0.00 0.00 0.00 86 1020.2
20260905222129 78 59 0.9 1.7 0.00 0.00 0.00 88 1020.0
20260905221128 77 66 0.0 0.0 0.00 0.00 0.00 90 1019.9
20260905220131 78 66 0.9 1.7 0.00 0.00 0.00 88 1019.8
20260905215127 78 75 1.7 1.7 0.00 0.00 0.00 88 1019.7
20260905214128 78 79 0.9 2.6 0.00 0.00 0.00 88 1019.5
20260905213129 78 336 0.0 1.7 0.00 0.00 0.00 87 1019.5
20260905212131 78 37 0.0 0.0 0.00 0.00 0.00 86 1019.3
20260905211129 79 65 0.0 1.7 0.00 0.00 0.00 85 1019.2
20260905210128 79 61 0.0 0.0 0.00 0.00 0.00 85 1019.1
20260905205128 79 61 0.0 0.0 0.00 0.00 0.00 85 1019.1
20260905204129 80 61 0.0 0.0 0.00 0.00 0.00 82 1019.1
20260905203128 81 61 0.0 0.9 0.00 0.00 0.00 81 1019.1
20260905202129 81 58 1.7 1.7 0.00 0.00 0.00 80 1019.1
20260905201132 81 58 1.7 1.7 0.00 0.00 0.00 78 1019.0
20260905200128 82 58 0.9 1.7 0.00 0.00 0.00 78 1018.8
20260905195128 82 58 0.9 2.6 0.00 0.00 0.00 78 1018.8
20260905194130 82 59 1.7 1.7 0.00 0.00 0.00 77 1018.6
20260905193130 83 58 1.7 2.6 0.00 0.00 0.00 76 1018.4
20260905192131 83 59 1.7 2.6 0.00 0.00 0.00 75 1018.3
20260905191130 83 61 1.7 1.7 0.00 0.00 0.00 75 1018.2
20260905190129 83 59 0.9 2.6 0.00 0.00 0.00 75 1018.0
20260905185128 83 60 0.0 1.7 0.00 0.00 0.00 75 1017.9
20260905184128 84 60 1.7 1.7 0.00 0.00 0.00 73 1017.7
20260905183128 84 60 1.7 2.6 0.00 0.00 0.00 73 1017.6
20260905182129 84 62 1.7 2.6 0.00 0.00 0.00 73 1017.3
20260905181129 85 73 1.7 3.5 0.00 0.00 0.00 72 1017.3
20260905180131 85 64 1.7 2.6 0.00 0.00 0.00 72 1017.2
20260905175130 85 65 1.7 2.6 0.00 0.00 0.00 71 1017.1
20260905174128 86 65 1.7 2.6 0.00 0.00 0.00 70 1016.9
20260905173128 86 61 1.7 3.5 0.00 0.00 0.00 69 1016.8
20260905172131 87 59 0.9 2.6 0.00 0.00 0.00 67 1016.7
20260905171130 87 51 0.9 2.6 0.00 0.00 0.00 67 1016.6
20260905170130 87 59 0.9 1.7 0.00 0.00 0.00 66 1016.6
20260905165129 89 160 0.0 0.9 0.00 0.00 0.00 63 1016.4
20260905164129 88 91 1.7 2.6 0.00 0.00 0.00 64 1016.3
20260905163132 87 87 1.7 2.6 0.00 0.00 0.00 63 1016.3
20260905162129 90 198 0.0 0.9 0.00 0.00 0.00 43 1016.3
20260905161128 91 198 0.0 0.9 0.00 0.00 0.00 41 1016.2
20260905160129 90 182 0.0 0.0 0.00 0.00 0.00 42 1016.3
20260905155128 90 240 0.9 0.9 0.00 0.00 0.00 42 1016.2
20260905154129 92 229 0.9 1.7 0.00 0.00 0.00 42 1016.2
20260905153128 92 205 0.9 1.7 0.00 0.00 0.00 42 1016.2
20260905152127 88 203 1.7 3.5 0.00 0.00 0.00 46 1016.1
20260905151129 91 228 0.0 0.9 0.00 0.00 0.00 42 1016.0
20260905150128 91 181 0.9 1.7 0.00 0.00 0.00 43 1016.1
20260905145131 91 267 1.7 3.5 0.00 0.00 0.00 45 1016.1
20260905144128 91 227 2.6 4.3 0.00 0.00 0.00 45 1016.1
20260905143128 92 237 0.9 1.7 0.00 0.00 0.00 44 1016.2
20260905142132 90 15 0.9 1.7 0.00 0.00 0.00 43 1016.2
20260905141129 89 353 0.0 0.0 0.00 0.00 0.00 45 1016.2
20260905140129 88 344 2.6 3.5 0.00 0.00 0.00 46 1016.1
20260905135130 90 192 0.0 1.7 0.00 0.00 0.00 46 1016.3
20260905134127 90 254 0.9 1.7 0.00 0.00 0.00 49 1016.4
20260905133132 89 178 0.9 1.7 0.00 0.00 0.00 49 1016.4
20260905132131 89 206 0.0 1.7 0.00 0.00 0.00 50 1016.5
20260905131130 89 158 0.9 1.7 0.00 0.00 0.00 48 1016.5
20260905130132 88 289 0.9 2.6 0.00 0.00 0.00 50 1016.6
20260905125129 87 174 0.0 0.9 0.00 0.00 0.00 51 1016.8
20260905124128 88 224 0.9 0.9 0.00 0.00 0.00 51 1016.8
20260905123131 86 203 2.6 4.3 0.00 0.00 0.00 52 1017.0
20260905122132 87 266 2.6 6.1 0.00 0.00 0.00 52 1017.1
20260905121131 87 259 2.6 4.3 0.00 0.00 0.00 54 1017.3
20260905120130 86 56 1.7 2.6 0.00 0.00 0.00 57 1017.2
20260905115127 87 153 0.9 1.7 0.00 0.00 0.00 53 1017.3
20260905114128 86 275 0.9 2.6 0.00 0.00 0.00 56 1017.2
20260905113128 87 214 0.9 1.7 0.00 0.00 0.00 54 1017.3
20260905112127 86 69 1.7 1.7 0.00 0.00 0.00 59 1017.4
20260905111128 84 26 1.7 4.3 0.00 0.00 0.00 57 1017.3
20260905110129 84 69 0.9 1.7 0.00 0.00 0.00 59 1017.4
20260905105127 84 61 0.9 1.7 0.00 0.00 0.00 64 1017.4
20260905104129 84 58 0.0 1.7 0.00 0.00 0.00 61 1017.4
20260905103129 84 304 1.7 2.6 0.00 0.00 0.00 64 1017.6
20260905102131 84 355 2.6 2.6 0.00 0.00 0.00 66 1017.5
20260905101128 85 330 1.7 1.7 0.00 0.00 0.00 65 1017.5
20260905100128 84 292 0.9 1.7 0.00 0.00 0.00 66 1017.5
20260905095124 82 308 1.7 1.7 0.00 0.00 0.00 67 1017.5
20260905094218 82 312 0.9 1.7 0.00 0.00 0.00 69 1017.6
20260905094124 82 312 0.9 1.7 0.00 0.00 0.00 69 1017.6
20260905094000 82 312 1.7 2.6 0.00 0.00 0.00 70 1017.7
20260905093727 82 316 0.9 1.7 0.00 0.00 0.00 69 1017.7
20260905093122 83 330 2.6 3.5 0.00 0.00 0.00 69 1017.7
20260905092524 83 337 0.9 1.7 0.00 0.00 0.00 70 1017.6